Weather in Burnaby

Canada     49°16′04″N   123°00′05″W
temp.,
°C
wind,
m/s
gust,
m/s
humid.,
%
clouds,
%
prec.,
mm/h
press.,
hPa
HPBL,
m
6 march, sat
sat601:00+4e1493100 2.4 1012156
04:00+5e2890100 3.5 1013490
07:00+4ese31093100 0.8 1013698
10:00+6sse3786100 2.8 1014670
13:00+8s467495 1.3 1014814
16:00+8s487797 3.5 1014671
19:00+5sse2688100 1.3 1015429
22:00+3ne4691100 3.0 1015265
7 march, sun
sun701:00+5ne3781100 0.1 1012422
04:00+4ene3887100 1.5 1013583
07:00+2ese2797100 7.4 1014339
10:00+5se3687100 9.1 1015634
13:00+3ese1293100 6.6 1018233
16:00+6s2470100 7.9 1019828
19:00+3e1286100 1.8 102276
22:00+1ene239082 3.1 102390
8 march, mon
mon801:00+1nne228720 0.1 102355
04:000nne238310 0.1 102280
07:00−1nne22760 0.0 102047
10:00+6wnw125716 0.0 1017431
13:00+9wsw215239 0.0 1016724
16:00+8w236548 0.0 1016344
19:00+3nne2281100 0.0 101748
22:00+2nne2269100 0.0 101940
9 march, tue
tue901:00+2ne2265100 0.0 101955
04:00+1nne2269100 0.0 102032
07:000nne117372 0.0 101924
10:00+6sw115784 0.0 1018395
13:00+8w22550 0.0 1017727
16:00+8w33590 0.1 1016740
19:00+3nw11780 0.0 101761
22:00+2ne11850 0.0 101828
10 march, wed
wed1001:000ene12900 0.0 101961
04:000ene119221 0.0 101952
07:00+1e119050 0.0 101957
10:00+5ese116974 0.0 1019696
13:00+8wsw125497 0.0 10191105
16:00+5wsw236199 0.1 1019859
19:00+2nne007696 0.0 102196
22:00+1ne238192 0.0 102295